New Haven, CT

6:37 AM EST on February 08, 2016 (GMT -0500)
Tweed-New Haven

Weather History for KHVN - April, 2014

Change the Weather History Date:

Saturday, April 5, 2014

  Actual Average Record
Temperature  
Mean Temperature 46 °F -  
Max Temperature 54 °F 51 °F 68 °F (1985)
Min Temperature 39 °F 36 °F 23 °F (1982)
Degree Days  
Heating Degree Days 18    
Moisture  
Dew Point 33 °F    
Average Humidity 67    
Maximum Humidity 93    
Minimum Humidity 37    
Precipitation  
Precipitation 0.04 in - - ()
Sea Level Pressure  
Sea Level Pressure 29.82 in    
Wind  
Wind Speed 9 mph (NW)    
Max Wind Speed 16 mph    
Max Gust Speed 29 mph    
Visibility 10 miles    
Events Rain    
Averages and records for this station are not official NWS values.
T = Trace of Precipitation, MM = Missing Value Source: NWS Daily Summary

Daily Weather History Graph

Daily Weather History Graph

Search for Another Location

Airport or City:

Trip Planner

Search our weather history database for the weather conditions in past years. The results will help you decide how hot, cold, wet, or windy it might be!

Date:

Astronomy

Apr. 05, 2014 Rise Set
Actual Time 6:28 AM EDT 7:20 PM EDT
Civil Twilight 6:00 AM EDT 7:49 PM EDT
Nautical Twilight 5:26 AM EDT 8:22 PM EDT
Astronomical Twilight 4:52 AM EDT 8:57 PM EDT
Moon 10:31 AM EDT (4/5) 12:30 AM EDT (4/5)
Length of Visible Light 13h 48m
Length of Day
12h 52m
Waxing Crescent, 34% of the Moon is Illuminated
Apr 5
Waxing Crescent
Apr 7
First Quarter
Apr 15
Full
Apr 22
Last Quarter
Apr 29
New

Hourly Weather History & Observations

Time (EDT) Temp. Windchill Dew Point Humidity Pressure Visibility Wind Dir Wind Speed Gust Speed Precip Events Conditions
12:53 AM 41.0 °F 37.1 °F 39.0 °F 93% 29.77 in 4.0 mi North 5.8 mph - N/A   Overcast
1:53 AM 39.9 °F 33.4 °F 37.9 °F 93% 29.76 in 10.0 mi North 10.4 mph - 0.04 in Rain Light Rain
2:16 AM 39.2 °F 30.8 °F 37.4 °F 93% 29.74 in 10.0 mi North 15.0 mph 19.6 mph 0.00 in   Overcast
2:53 AM 39.0 °F 32.3 °F 37.0 °F 93% 29.71 in 10.0 mi North 10.4 mph - 0.00 in   Overcast
3:53 AM 39.0 °F 31.4 °F 36.0 °F 89% 29.72 in 10.0 mi North 12.7 mph 20.7 mph N/A   Overcast
4:53 AM 39.0 °F 32.3 °F 37.0 °F 93% 29.72 in 8.0 mi North 10.4 mph - N/A   Overcast
5:53 AM 39.0 °F 34.8 °F 37.0 °F 93% 29.74 in 10.0 mi North 5.8 mph - N/A   Overcast
6:53 AM 39.0 °F 36.8 °F 36.0 °F 89% 29.76 in 10.0 mi NNW 3.5 mph - N/A   Mostly Cloudy
7:53 AM 39.9 °F 36.7 °F 37.9 °F 93% 29.78 in 10.0 mi WNW 4.6 mph - N/A   Overcast
8:53 AM 42.1 °F 39.2 °F 39.0 °F 89% 29.77 in 10.0 mi WSW 4.6 mph - N/A   Mostly Cloudy
9:04 AM 42.8 °F 41.1 °F 39.2 °F 87% 29.77 in 10.0 mi WSW 3.5 mph - N/A   Scattered Clouds
9:05 AM 42.8 °F 41.1 °F 39.2 °F 87% 29.77 in 10.0 mi WSW 3.5 mph - N/A   Scattered Clouds
9:53 AM 43.0 °F 38.8 °F 39.0 °F 86% 29.78 in 10.0 mi SW 6.9 mph - N/A   Scattered Clouds
10:53 AM 50.0 °F - 41.0 °F 71% 29.78 in 10.0 mi WNW 13.8 mph 20.7 mph N/A   Mostly Cloudy
11:53 AM 53.1 °F - 33.1 °F 47% 29.77 in 10.0 mi West 12.7 mph 20.7 mph N/A   Mostly Cloudy
12:53 PM 53.1 °F - 30.0 °F 41% 29.78 in 10.0 mi West 15.0 mph 23.0 mph N/A   Scattered Clouds
1:53 PM 54.0 °F - 28.9 °F 38% 29.79 in 10.0 mi West 10.4 mph 28.8 mph N/A   Scattered Clouds
2:53 PM 53.1 °F - 28.0 °F 38% 29.79 in 10.0 mi WNW 13.8 mph 24.2 mph N/A   Mostly Cloudy
3:53 PM 54.0 °F - 28.0 °F 37% 29.80 in 10.0 mi WNW 10.4 mph 24.2 mph N/A   Mostly Cloudy
4:53 PM 53.1 °F - 28.0 °F 38% 29.83 in 10.0 mi WNW 11.5 mph 18.4 mph N/A   Partly Cloudy
5:53 PM 52.0 °F - 27.0 °F 38% 29.86 in 10.0 mi WNW 13.8 mph 21.9 mph N/A   Scattered Clouds
6:53 PM 48.9 °F - 26.1 °F 41% 29.89 in 10.0 mi NW 12.7 mph 25.3 mph N/A   Clear
7:53 PM 46.0 °F 39.3 °F 25.0 °F 44% 29.94 in 10.0 mi NW 16.1 mph 26.5 mph N/A   Partly Cloudy
8:53 PM 44.1 °F 38.1 °F 25.0 °F 47% 29.97 in 10.0 mi WNW 11.5 mph 17.3 mph N/A   Partly Cloudy
9:53 PM 43.0 °F 38.8 °F 24.1 °F 47% 29.99 in 10.0 mi WNW 6.9 mph - N/A   Clear
10:53 PM 42.1 °F 37.7 °F 24.1 °F 49% 30.01 in 10.0 mi NW 6.9 mph - N/A   Clear
11:53 PM 41.0 °F 35.8 °F 21.9 °F 47% 30.03 in 10.0 mi NW 8.1 mph - N/A   Clear